Year,Month,Day,Hour,Minute,Value (Times are PST for temperature in C)
2007,05,29,00,00,11.30
2007,05,29,00,01,11.30
2007,05,29,00,02,11.30
2007,05,29,00,03,11.40
2007,05,29,00,04,11.40
2007,05,29,00,05,11.40
2007,05,29,00,06,11.40
2007,05,29,00,07,11.40
2007,05,29,00,08,11.40
2007,05,29,00,09,11.60
2007,05,29,00,10,11.60
2007,05,29,00,11,11.60
2007,05,29,00,12,11.60
2007,05,29,00,13,11.60
2007,05,29,00,14,11.60
2007,05,29,00,15,11.60
2007,05,29,00,16,11.60
2007,05,29,00,17,11.60
2007,05,29,00,18,11.60
2007,05,29,00,19,11.60
2007,05,29,00,20,11.60
2007,05,29,00,21,11.60
2007,05,29,00,22,11.60
2007,05,29,00,23,11.50
2007,05,29,00,24,11.40
2007,05,29,00,25,11.40
2007,05,29,00,26,11.40
2007,05,29,00,27,11.30
2007,05,29,00,28,11.30
2007,05,29,00,29,11.20
2007,05,29,00,30,11.10
2007,05,29,00,31,11.10
2007,05,29,00,32,11.10
2007,05,29,00,33,11.00
2007,05,29,00,34,10.90
2007,05,29,00,35,10.90
2007,05,29,00,36,10.80
2007,05,29,00,37,10.80
2007,05,29,00,38,10.70
2007,05,29,00,39,10.60
2007,05,29,00,40,10.60
2007,05,29,00,41,10.50
2007,05,29,00,42,10.40
2007,05,29,00,43,10.30
2007,05,29,00,44,10.20
2007,05,29,00,45,10.10
2007,05,29,00,46,10.10
2007,05,29,00,47,10.10
2007,05,29,00,48,9.90
2007,05,29,00,49,9.90
2007,05,29,00,50,9.90
2007,05,29,00,51,9.90
2007,05,29,00,52,9.90
2007,05,29,00,53,9.80
2007,05,29,00,54,9.80
2007,05,29,00,55,9.70
2007,05,29,00,56,9.70
2007,05,29,00,57,9.70
2007,05,29,00,58,9.70
2007,05,29,00,59,9.70
2007,05,29,01,00,9.70
2007,05,29,01,01,9.60
2007,05,29,01,02,9.60
2007,05,29,01,03,9.60
2007,05,29,01,04,9.50
2007,05,29,01,05,9.50
2007,05,29,01,06,9.50
2007,05,29,01,07,9.40
2007,05,29,01,08,9.40
2007,05,29,01,09,9.40
2007,05,29,01,10,9.30
2007,05,29,01,11,9.30
2007,05,29,01,12,9.30
2007,05,29,01,13,9.20
2007,05,29,01,14,9.20
2007,05,29,01,15,9.20
2007,05,29,01,16,9.20
2007,05,29,01,17,9.20
2007,05,29,01,18,9.10
2007,05,29,01,19,9.10
2007,05,29,01,20,9.10
2007,05,29,01,21,9.00
2007,05,29,01,22,9.00
2007,05,29,01,23,9.00
2007,05,29,01,24,9.10
2007,05,29,01,25,9.10
2007,05,29,01,26,9.10
2007,05,29,01,27,9.10
2007,05,29,01,28,9.10
2007,05,29,01,29,9.20
2007,05,29,01,30,9.20
2007,05,29,01,31,9.20
2007,05,29,01,32,9.20
2007,05,29,01,33,9.20
2007,05,29,01,34,9.20
2007,05,29,01,35,9.30
2007,05,29,01,36,9.30
2007,05,29,01,37,9.30
2007,05,29,01,38,9.20
2007,05,29,01,39,9.20
2007,05,29,01,40,9.20
2007,05,29,01,41,9.30
2007,05,29,01,42,9.30
2007,05,29,01,43,9.30
2007,05,29,01,44,9.30
2007,05,29,01,45,9.40
2007,05,29,01,46,9.40
2007,05,29,01,47,9.50
2007,05,29,01,48,9.50
2007,05,29,01,49,9.50
2007,05,29,01,50,9.50
2007,05,29,01,51,9.60
2007,05,29,01,52,9.70
2007,05,29,01,53,9.70
2007,05,29,01,54,9.70
2007,05,29,01,55,9.70
2007,05,29,01,56,9.80
2007,05,29,01,57,9.80
2007,05,29,01,58,9.80
2007,05,29,01,59,9.80
2007,05,29,02,00,9.70
2007,05,29,02,01,9.70
2007,05,29,02,02,9.70
2007,05,29,02,03,9.70
2007,05,29,02,04,9.70
2007,05,29,02,05,9.70
2007,05,29,02,06,9.70
2007,05,29,02,07,9.70
2007,05,29,02,08,9.70
2007,05,29,02,09,9.70
2007,05,29,02,10,9.70
2007,05,29,02,11,9.70
2007,05,29,02,12,9.70
2007,05,29,02,13,9.70
2007,05,29,02,14,9.60
2007,05,29,02,15,9.50
2007,05,29,02,16,9.40
2007,05,29,02,17,9.40
2007,05,29,02,18,9.30
2007,05,29,02,19,9.30
2007,05,29,02,20,9.20
2007,05,29,02,21,9.20
2007,05,29,02,22,9.10
2007,05,29,02,23,9.00
2007,05,29,02,24,9.00
2007,05,29,02,25,8.90
2007,05,29,02,26,8.80
2007,05,29,02,27,8.80
2007,05,29,02,28,8.80
2007,05,29,02,29,8.80
2007,05,29,02,30,8.80
2007,05,29,02,31,8.70
2007,05,29,02,32,8.70
2007,05,29,02,33,8.70
2007,05,29,02,34,8.70
2007,05,29,02,35,8.70
2007,05,29,02,36,8.70
2007,05,29,02,37,8.70
2007,05,29,02,38,8.70
2007,05,29,02,39,8.70
2007,05,29,02,40,8.70
2007,05,29,02,41,8.70
2007,05,29,02,42,8.70
2007,05,29,02,43,8.70
2007,05,29,02,44,8.70
2007,05,29,02,45,8.70
2007,05,29,02,46,8.70
2007,05,29,02,47,8.70
2007,05,29,02,48,8.70
2007,05,29,02,49,8.80
2007,05,29,02,50,8.80
2007,05,29,02,51,8.80
2007,05,29,02,52,8.80
2007,05,29,02,53,8.80
2007,05,29,02,54,8.80
2007,05,29,02,55,8.80
2007,05,29,02,56,8.80
2007,05,29,02,57,8.80
2007,05,29,02,58,8.70
2007,05,29,02,59,8.70
2007,05,29,03,00,8.60
2007,05,29,03,01,8.50
2007,05,29,03,02,8.50
2007,05,29,03,03,8.50
2007,05,29,03,04,8.40
2007,05,29,03,05,8.40
2007,05,29,03,06,8.30
2007,05,29,03,07,8.30
2007,05,29,03,08,8.30
2007,05,29,03,09,8.30
2007,05,29,03,10,8.20
2007,05,29,03,11,8.20
2007,05,29,03,12,8.20
2007,05,29,03,13,8.20
2007,05,29,03,14,8.20
2007,05,29,03,15,8.20
2007,05,29,03,16,8.20
2007,05,29,03,17,8.30
2007,05,29,03,18,8.30
2007,05,29,03,19,8.30
2007,05,29,03,20,8.40
2007,05,29,03,21,8.40
2007,05,29,03,22,8.40
2007,05,29,03,23,8.40
2007,05,29,03,24,8.40
2007,05,29,03,25,8.40
2007,05,29,03,26,8.40
2007,05,29,03,27,8.40
2007,05,29,03,28,8.40
2007,05,29,03,29,8.40
2007,05,29,03,30,8.30
2007,05,29,03,31,8.30
2007,05,29,03,32,8.30
2007,05,29,03,33,8.30
2007,05,29,03,34,8.30
2007,05,29,03,35,8.30
2007,05,29,03,36,8.30
2007,05,29,03,37,8.30
2007,05,29,03,38,8.40
2007,05,29,03,39,8.40
2007,05,29,03,40,8.40
2007,05,29,03,41,8.40
2007,05,29,03,42,8.40
2007,05,29,03,43,8.40
2007,05,29,03,44,8.50
2007,05,29,03,45,8.50
2007,05,29,03,46,8.50
2007,05,29,03,47,8.50
2007,05,29,03,48,8.50
2007,05,29,03,49,8.50
2007,05,29,03,50,8.60
2007,05,29,03,51,8.60
2007,05,29,03,52,8.60
2007,05,29,03,53,8.60
2007,05,29,03,54,8.60
2007,05,29,03,55,8.70
2007,05,29,03,56,8.70
2007,05,29,03,57,8.70
2007,05,29,03,58,8.70
2007,05,29,03,59,8.70
2007,05,29,04,00,8.60
2007,05,29,04,01,8.40
2007,05,29,04,02,8.30
2007,05,29,04,03,8.20
2007,05,29,04,04,8.20
2007,05,29,04,05,8.10
2007,05,29,04,06,8.10
2007,05,29,04,07,8.10
2007,05,29,04,08,8.10
2007,05,29,04,09,8.10
2007,05,29,04,10,8.10
2007,05,29,04,11,8.10
2007,05,29,04,12,8.10
2007,05,29,04,13,8.10
2007,05,29,04,14,8.10
2007,05,29,04,15,8.10
2007,05,29,04,16,8.10
2007,05,29,04,17,8.10
2007,05,29,04,18,8.10
2007,05,29,04,19,8.10
2007,05,29,04,20,8.10
2007,05,29,04,21,8.10
2007,05,29,04,22,8.10
2007,05,29,04,23,8.10
2007,05,29,04,24,8.10
2007,05,29,04,25,8.10
2007,05,29,04,26,8.20
2007,05,29,04,27,8.20
2007,05,29,04,28,8.30
2007,05,29,04,29,8.40
2007,05,29,04,30,8.40
2007,05,29,04,31,8.50
2007,05,29,04,32,8.60
2007,05,29,04,33,8.60
2007,05,29,04,34,8.60
2007,05,29,04,35,8.60
2007,05,29,04,36,8.60
2007,05,29,04,37,8.60
2007,05,29,04,38,8.50
2007,05,29,04,39,8.50
2007,05,29,04,40,8.50
2007,05,29,04,41,8.50
2007,05,29,04,42,8.50
2007,05,29,04,43,8.40
2007,05,29,04,44,8.40
2007,05,29,04,45,8.50
2007,05,29,04,46,8.50
2007,05,29,04,47,8.50
2007,05,29,04,48,8.50
2007,05,29,04,49,8.50
2007,05,29,04,50,8.50
2007,05,29,04,51,8.60
2007,05,29,04,52,8.60
2007,05,29,04,53,8.60
2007,05,29,04,54,8.70
2007,05,29,04,55,8.70
2007,05,29,04,56,8.70
2007,05,29,04,57,8.70
2007,05,29,04,58,8.70
2007,05,29,04,59,8.70
2007,05,29,05,00,8.70
2007,05,29,05,01,8.70
2007,05,29,05,02,8.70
2007,05,29,05,03,8.70
2007,05,29,05,04,8.70
2007,05,29,05,05,8.70
2007,05,29,05,06,8.70
2007,05,29,05,07,8.70
2007,05,29,05,08,8.70
2007,05,29,05,09,8.70
2007,05,29,05,10,8.70
2007,05,29,05,11,8.70
2007,05,29,05,12,8.70
2007,05,29,05,13,8.70
2007,05,29,05,14,8.60
2007,05,29,05,15,8.50
2007,05,29,05,16,8.50
2007,05,29,05,17,8.40
2007,05,29,05,18,8.40
2007,05,29,05,19,8.40
2007,05,29,05,20,8.30
2007,05,29,05,21,8.20
2007,05,29,05,22,8.20
2007,05,29,05,23,8.10
2007,05,29,05,24,8.10
2007,05,29,05,25,8.00
2007,05,29,05,26,7.90
2007,05,29,05,27,7.80
2007,05,29,05,28,7.70
2007,05,29,05,29,7.70
2007,05,29,05,30,7.60
2007,05,29,05,31,7.60
2007,05,29,05,32,7.60
2007,05,29,05,33,7.60
2007,05,29,05,34,7.50
2007,05,29,05,35,7.50
2007,05,29,05,36,7.50
2007,05,29,05,37,7.50
2007,05,29,05,38,7.50
2007,05,29,05,39,7.40
2007,05,29,05,40,7.40
2007,05,29,05,41,7.40
2007,05,29,05,42,7.40
2007,05,29,05,43,7.40
2007,05,29,05,44,7.40
2007,05,29,05,45,7.40
2007,05,29,05,46,7.40
2007,05,29,05,47,7.40
2007,05,29,05,48,7.40
2007,05,29,05,49,7.30
2007,05,29,05,50,7.30
2007,05,29,05,51,7.30
2007,05,29,05,52,7.30
2007,05,29,05,53,7.30
2007,05,29,05,54,7.30
2007,05,29,05,55,7.30
2007,05,29,05,56,7.30
2007,05,29,05,57,7.30
2007,05,29,05,58,7.30
2007,05,29,05,59,7.40
2007,05,29,06,00,7.40
2007,05,29,06,01,7.40
2007,05,29,06,02,7.40
2007,05,29,06,03,7.50
2007,05,29,06,04,7.50
2007,05,29,06,05,7.50
2007,05,29,06,06,7.60
2007,05,29,06,07,7.60
2007,05,29,06,08,7.60
2007,05,29,06,09,7.60
2007,05,29,06,10,7.60
2007,05,29,06,11,7.60
2007,05,29,06,12,7.70
2007,05,29,06,13,7.70
2007,05,29,06,14,7.70
2007,05,29,06,15,7.80
2007,05,29,06,16,7.80
2007,05,29,06,17,7.80
2007,05,29,06,18,7.90
2007,05,29,06,19,8.00
2007,05,29,06,20,8.10
2007,05,29,06,21,8.20
2007,05,29,06,22,8.20
2007,05,29,06,23,8.30
2007,05,29,06,24,8.40
2007,05,29,06,25,8.50
2007,05,29,06,26,8.50
2007,05,29,06,27,8.60
2007,05,29,06,28,8.60
2007,05,29,06,29,8.60
2007,05,29,06,30,8.60
2007,05,29,06,31,8.60
2007,05,29,06,32,8.60
2007,05,29,06,33,8.60
2007,05,29,06,34,8.60
2007,05,29,06,35,8.70
2007,05,29,06,36,8.70
2007,05,29,06,37,8.70
2007,05,29,06,38,8.70
2007,05,29,06,39,8.70
2007,05,29,06,40,8.70
2007,05,29,06,41,8.70
2007,05,29,06,42,8.70
2007,05,29,06,43,8.70
2007,05,29,06,44,8.70
2007,05,29,06,45,8.70
2007,05,29,06,46,8.80
2007,05,29,06,47,8.80
2007,05,29,06,48,8.90
2007,05,29,06,49,8.90
2007,05,29,06,50,8.90
2007,05,29,06,51,9.00
2007,05,29,06,52,9.00
2007,05,29,06,53,9.10
2007,05,29,06,54,9.20
2007,05,29,06,55,9.20
2007,05,29,06,56,9.30
2007,05,29,06,57,9.30
2007,05,29,06,58,9.40
2007,05,29,06,59,9.50
2007,05,29,07,00,9.60
2007,05,29,07,01,9.70
2007,05,29,07,02,9.70
2007,05,29,07,03,9.70
2007,05,29,07,04,9.70
2007,05,29,07,05,9.80
2007,05,29,07,06,9.80
2007,05,29,07,07,9.80
2007,05,29,07,08,9.80
2007,05,29,07,09,9.90
2007,05,29,07,10,9.90
2007,05,29,07,11,9.90
2007,05,29,07,12,9.90
2007,05,29,07,13,10.10
2007,05,29,07,14,10.10
2007,05,29,07,15,10.10
2007,05,29,07,16,10.30
2007,05,29,07,17,10.40
2007,05,29,07,18,10.60
2007,05,29,07,19,10.70
2007,05,29,07,20,10.90
2007,05,29,07,21,11.00
2007,05,29,07,22,11.20
2007,05,29,07,23,11.30
2007,05,29,07,24,11.40
2007,05,29,07,25,11.50
2007,05,29,07,26,11.60
2007,05,29,07,27,11.60
2007,05,29,07,28,11.80
2007,05,29,07,29,11.90
2007,05,29,07,30,12.00
2007,05,29,07,31,12.10
2007,05,29,07,32,12.10
2007,05,29,07,33,12.20
2007,05,29,07,34,12.20
2007,05,29,07,35,12.30
2007,05,29,07,36,12.30
2007,05,29,07,37,12.40
2007,05,29,07,38,12.50
2007,05,29,07,39,12.50
2007,05,29,07,40,12.50
2007,05,29,07,41,12.60
2007,05,29,07,42,12.60
2007,05,29,07,43,12.60
2007,05,29,07,44,12.70
2007,05,29,07,45,12.70
2007,05,29,07,46,12.80
2007,05,29,07,47,12.80
2007,05,29,07,48,12.80
2007,05,29,07,49,12.80
2007,05,29,07,50,12.80
2007,05,29,07,51,12.80
2007,05,29,07,52,12.90
2007,05,29,07,53,12.90
2007,05,29,07,54,12.90
2007,05,29,07,55,12.90
2007,05,29,07,56,12.90
2007,05,29,07,57,12.90
2007,05,29,07,58,13.00
2007,05,29,07,59,13.00
2007,05,29,08,00,13.00
2007,05,29,08,01,13.00
2007,05,29,08,02,13.00
2007,05,29,08,03,13.00
2007,05,29,08,04,13.00
2007,05,29,08,05,13.00
2007,05,29,08,06,13.10
2007,05,29,08,07,13.10
2007,05,29,08,08,13.20
2007,05,29,08,09,13.30
2007,05,29,08,10,13.30
2007,05,29,08,11,13.30
2007,05,29,08,12,13.30
2007,05,29,08,13,13.30
2007,05,29,08,14,13.30
2007,05,29,08,15,13.30
2007,05,29,08,16,13.30
2007,05,29,08,17,13.40
2007,05,29,08,18,13.40
2007,05,29,08,19,13.30
2007,05,29,08,20,13.40
2007,05,29,08,21,13.40
2007,05,29,08,22,13.50
2007,05,29,08,23,13.50
2007,05,29,08,24,13.50
2007,05,29,08,25,13.50
2007,05,29,08,26,13.50
2007,05,29,08,27,13.60
2007,05,29,08,28,13.50
2007,05,29,08,29,13.50
2007,05,29,08,30,13.50
2007,05,29,08,31,13.60
2007,05,29,08,32,13.60
2007,05,29,08,33,13.70
2007,05,29,08,34,13.70
2007,05,29,08,35,13.70
2007,05,29,08,36,13.60
2007,05,29,08,37,13.60
2007,05,29,08,38,13.60
2007,05,29,08,39,13.60
2007,05,29,08,40,13.60
2007,05,29,08,41,13.60
2007,05,29,08,42,13.60
2007,05,29,08,43,13.70
2007,05,29,08,44,13.80
2007,05,29,08,45,13.90
2007,05,29,08,46,14.00
2007,05,29,08,47,14.00
2007,05,29,08,48,14.10
2007,05,29,08,49,14.20
2007,05,29,08,50,14.20
2007,05,29,08,51,14.20
2007,05,29,08,52,14.10
2007,05,29,08,53,14.10
2007,05,29,08,54,14.10
2007,05,29,08,55,14.10
2007,05,29,08,56,14.10
2007,05,29,08,57,14.10
2007,05,29,08,58,14.20
2007,05,29,08,59,14.20
2007,05,29,09,00,14.20
2007,05,29,09,01,14.20
2007,05,29,09,02,14.40
2007,05,29,09,03,14.50
2007,05,29,09,04,14.60
2007,05,29,09,05,14.60
2007,05,29,09,06,14.70
2007,05,29,09,07,14.60
2007,05,29,09,08,14.60
2007,05,29,09,09,14.60
2007,05,29,09,10,14.60
2007,05,29,09,11,14.60
2007,05,29,09,12,14.60
2007,05,29,09,13,14.60
2007,05,29,09,14,14.60
2007,05,29,09,15,14.60
2007,05,29,09,16,14.60
2007,05,29,09,17,14.50
2007,05,29,09,18,14.50
2007,05,29,09,19,14.60
2007,05,29,09,20,14.60
2007,05,29,09,21,14.60
2007,05,29,09,22,14.70
2007,05,29,09,23,14.60
2007,05,29,09,24,14.60
2007,05,29,09,25,14.60
2007,05,29,09,26,14.60
2007,05,29,09,27,14.60
2007,05,29,09,28,14.50
2007,05,29,09,29,14.50
2007,05,29,09,30,14.40
2007,05,29,09,31,14.40
2007,05,29,09,32,14.40
2007,05,29,09,33,14.40
2007,05,29,09,34,14.50
2007,05,29,09,35,14.50
2007,05,29,09,36,14.50
2007,05,29,09,37,14.50
2007,05,29,09,38,14.50
2007,05,29,09,39,14.50
2007,05,29,09,40,14.50
2007,05,29,09,41,14.40
2007,05,29,09,42,14.40
2007,05,29,09,43,14.40
2007,05,29,09,44,14.50
2007,05,29,09,45,14.60
2007,05,29,09,46,14.70
2007,05,29,09,47,14.80
2007,05,29,09,48,14.80
2007,05,29,09,49,14.80
2007,05,29,09,50,14.90
2007,05,29,09,51,15.00
2007,05,29,09,52,15.10
2007,05,29,09,53,15.10
2007,05,29,09,54,15.20
2007,05,29,09,55,15.20
2007,05,29,09,56,15.20
2007,05,29,09,57,15.20
2007,05,29,09,58,15.00
2007,05,29,09,59,14.90
2007,05,29,10,00,14.90
2007,05,29,10,01,14.90
2007,05,29,10,02,14.80
2007,05,29,10,03,14.80
2007,05,29,10,04,14.80
2007,05,29,10,05,14.90
2007,05,29,10,06,14.90
2007,05,29,10,07,15.00
2007,05,29,10,08,15.20
2007,05,29,10,09,15.30
2007,05,29,10,10,15.30
2007,05,29,10,11,15.30
2007,05,29,10,12,15.30
2007,05,29,10,13,15.30
2007,05,29,10,14,15.40
2007,05,29,10,15,15.60
2007,05,29,10,16,15.70
2007,05,29,10,17,15.80
2007,05,29,10,18,15.90
2007,05,29,10,19,15.90
2007,05,29,10,20,15.90
2007,05,29,10,21,15.90
2007,05,29,10,22,15.80
2007,05,29,10,23,15.60
2007,05,29,10,24,15.60
2007,05,29,10,25,15.60
2007,05,29,10,26,15.50
2007,05,29,10,27,15.60
2007,05,29,10,28,15.60
2007,05,29,10,29,15.60
2007,05,29,10,30,15.60
2007,05,29,10,31,15.60
2007,05,29,10,32,15.50
2007,05,29,10,33,15.50
2007,05,29,10,34,15.50
2007,05,29,10,35,15.50
2007,05,29,10,36,15.50
2007,05,29,10,37,15.60
2007,05,29,10,38,15.70
2007,05,29,10,39,15.70
2007,05,29,10,40,15.80
2007,05,29,10,41,15.90
2007,05,29,10,42,16.10
2007,05,29,10,43,16.20
2007,05,29,10,44,16.40
2007,05,29,10,45,16.40
2007,05,29,10,46,16.40
2007,05,29,10,47,16.40
2007,05,29,10,48,16.40
2007,05,29,10,49,16.40
2007,05,29,10,50,16.40
2007,05,29,10,51,16.40
2007,05,29,10,52,16.40
2007,05,29,10,53,16.20
2007,05,29,10,54,16.20
2007,05,29,10,55,16.30
2007,05,29,10,56,16.30
2007,05,29,10,57,16.30
2007,05,29,10,58,16.40
2007,05,29,10,59,16.40
2007,05,29,11,00,16.40
2007,05,29,11,01,16.40
2007,05,29,11,02,16.40
2007,05,29,11,03,16.40
2007,05,29,11,04,16.60
2007,05,29,11,05,16.60
2007,05,29,11,06,16.70
2007,05,29,11,07,16.70
2007,05,29,11,08,16.70
2007,05,29,11,09,16.70
2007,05,29,11,10,16.70
2007,05,29,11,11,16.70
2007,05,29,11,12,16.70
2007,05,29,11,13,16.70
2007,05,29,11,14,16.70
2007,05,29,11,15,16.70
2007,05,29,11,16,16.70
2007,05,29,11,17,16.70
2007,05,29,11,18,16.70
2007,05,29,11,19,16.80
2007,05,29,11,20,17.00
2007,05,29,11,21,17.00
2007,05,29,11,22,17.00
2007,05,29,11,23,16.90
2007,05,29,11,24,16.90
2007,05,29,11,25,16.90
2007,05,29,11,26,16.90
2007,05,29,11,27,17.00
2007,05,29,11,28,17.10
2007,05,29,11,29,17.20
2007,05,29,11,30,17.30
2007,05,29,11,31,17.50
2007,05,29,11,32,17.50
2007,05,29,11,33,17.70
2007,05,29,11,34,17.70
2007,05,29,11,35,17.70
2007,05,29,11,36,17.70
2007,05,29,11,37,17.50
2007,05,29,11,38,17.50
2007,05,29,11,39,17.40
2007,05,29,11,40,17.30
2007,05,29,11,41,17.30
2007,05,29,11,42,17.20
2007,05,29,11,43,17.10
2007,05,29,11,44,17.10
2007,05,29,11,45,17.10
2007,05,29,11,46,17.10
2007,05,29,11,47,17.20
2007,05,29,11,48,17.30
2007,05,29,11,49,17.40
2007,05,29,11,50,17.60
2007,05,29,11,51,17.60
2007,05,29,11,52,17.60
2007,05,29,11,53,17.70
2007,05,29,11,54,17.70
2007,05,29,11,55,17.60
2007,05,29,11,56,17.60
2007,05,29,11,57,17.70
2007,05,29,11,58,17.60
2007,05,29,11,59,17.60
2007,05,29,12,00,17.60
2007,05,29,12,01,17.70
2007,05,29,12,02,17.70
2007,05,29,12,03,17.80
2007,05,29,12,04,17.90
2007,05,29,12,05,17.90
2007,05,29,12,06,17.90
2007,05,29,12,07,17.90
2007,05,29,12,08,17.90
2007,05,29,12,09,18.00
2007,05,29,12,10,18.10
2007,05,29,12,11,18.20
2007,05,29,12,12,18.40
2007,05,29,12,13,18.50
2007,05,29,12,14,18.60
2007,05,29,12,15,18.60
2007,05,29,12,16,18.50
2007,05,29,12,17,18.50
2007,05,29,12,18,18.40
2007,05,29,12,19,18.40
2007,05,29,12,20,18.30
2007,05,29,12,21,18.40
2007,05,29,12,22,18.40
2007,05,29,12,23,18.40
2007,05,29,12,24,18.30
2007,05,29,12,25,18.30
2007,05,29,12,26,18.40
2007,05,29,12,27,18.40
2007,05,29,12,28,18.30
2007,05,29,12,29,18.20
2007,05,29,12,30,18.20
2007,05,29,12,31,18.20
2007,05,29,12,32,18.40
2007,05,29,12,33,18.30
2007,05,29,12,34,18.30
2007,05,29,12,35,18.20
2007,05,29,12,36,18.20
2007,05,29,12,37,18.10
2007,05,29,12,38,18.10
2007,05,29,12,39,18.10
2007,05,29,12,40,18.20
2007,05,29,12,41,18.30
2007,05,29,12,42,18.40
2007,05,29,12,43,18.40
2007,05,29,12,44,18.40
2007,05,29,12,45,18.60
2007,05,29,12,46,18.70
2007,05,29,12,47,18.80
2007,05,29,12,48,18.80
2007,05,29,12,49,18.80
2007,05,29,12,50,18.80
2007,05,29,12,51,18.80
2007,05,29,12,52,18.80
2007,05,29,12,53,18.80
2007,05,29,12,54,18.70
2007,05,29,12,55,18.60
2007,05,29,12,56,18.70
2007,05,29,12,57,18.80
2007,05,29,12,58,19.00
2007,05,29,12,59,19.10
2007,05,29,13,00,19.30
2007,05,29,13,01,19.30
2007,05,29,13,02,19.40
2007,05,29,13,03,19.40
2007,05,29,13,04,19.40
2007,05,29,13,05,19.40
2007,05,29,13,06,19.30
2007,05,29,13,07,19.20
2007,05,29,13,08,19.20
2007,05,29,13,09,19.10
2007,05,29,13,10,19.10
2007,05,29,13,11,19.10
2007,05,29,13,12,19.10
2007,05,29,13,13,19.20
2007,05,29,13,14,19.20
2007,05,29,13,15,19.30
2007,05,29,13,16,19.30
2007,05,29,13,17,19.30
2007,05,29,13,18,19.30
2007,05,29,13,19,19.30
2007,05,29,13,20,19.40
2007,05,29,13,21,19.40
2007,05,29,13,22,19.40
2007,05,29,13,23,19.40
2007,05,29,13,24,19.50
2007,05,29,13,25,19.70
2007,05,29,13,26,19.70
2007,05,29,13,27,19.70
2007,05,29,13,28,19.70
2007,05,29,13,29,19.60
2007,05,29,13,30,19.50
2007,05,29,13,31,19.40
2007,05,29,13,32,19.40
2007,05,29,13,33,19.40
2007,05,29,13,34,19.40
2007,05,29,13,35,19.30
2007,05,29,13,36,19.20
2007,05,29,13,37,19.20
2007,05,29,13,38,19.30
2007,05,29,13,39,19.30
2007,05,29,13,40,19.30
2007,05,29,13,41,19.40
2007,05,29,13,42,19.50
2007,05,29,13,43,19.60
2007,05,29,13,44,19.70
2007,05,29,13,45,19.70
2007,05,29,13,46,19.70
2007,05,29,13,47,19.80
2007,05,29,13,48,19.80
2007,05,29,13,49,19.80
2007,05,29,13,50,19.90
2007,05,29,13,51,19.90
2007,05,29,13,52,19.90
2007,05,29,13,53,19.90
2007,05,29,13,54,19.90
2007,05,29,13,55,19.90
2007,05,29,13,56,19.90
2007,05,29,13,57,19.80
2007,05,29,13,58,19.80
2007,05,29,13,59,19.90
2007,05,29,14,00,19.90
2007,05,29,14,01,19.90
2007,05,29,14,02,20.10
2007,05,29,14,03,20.10
2007,05,29,14,04,20.00
2007,05,29,14,05,19.90
2007,05,29,14,06,20.00
2007,05,29,14,07,20.10
2007,05,29,14,08,20.20
2007,05,29,14,09,20.20
2007,05,29,14,10,20.20
2007,05,29,14,11,20.30
2007,05,29,14,12,20.20
2007,05,29,14,13,20.20
2007,05,29,14,14,20.20
2007,05,29,14,15,20.30
2007,05,29,14,16,20.30
2007,05,29,14,17,20.50
2007,05,29,14,18,20.50
2007,05,29,14,19,20.60
2007,05,29,14,20,20.60
2007,05,29,14,21,20.60
2007,05,29,14,22,20.70
2007,05,29,14,23,20.70
2007,05,29,14,24,20.70
2007,05,29,14,25,20.50
2007,05,29,14,26,20.40
2007,05,29,14,27,20.20
2007,05,29,14,28,20.10
2007,05,29,14,29,20.10
2007,05,29,14,30,20.20
2007,05,29,14,31,20.20
2007,05,29,14,32,20.30
2007,05,29,14,33,20.50
2007,05,29,14,34,20.60
2007,05,29,14,35,20.60
2007,05,29,14,36,20.70
2007,05,29,14,37,20.90
2007,05,29,14,38,21.00
2007,05,29,14,39,21.10
2007,05,29,14,40,21.10
2007,05,29,14,41,21.10
2007,05,29,14,42,21.20
2007,05,29,14,43,21.20
2007,05,29,14,44,21.10
2007,05,29,14,45,21.10
2007,05,29,14,46,21.10
2007,05,29,14,47,21.10
2007,05,29,14,48,21.10
2007,05,29,14,49,21.20
2007,05,29,14,50,21.30
2007,05,29,14,51,21.30
2007,05,29,14,52,21.30
2007,05,29,14,53,21.30
2007,05,29,14,54,21.30
2007,05,29,14,55,21.30
2007,05,29,14,56,21.30
2007,05,29,14,57,21.30
2007,05,29,14,58,21.30
2007,05,29,14,59,21.40
2007,05,29,15,00,21.60
2007,05,29,15,01,21.80
2007,05,29,15,02,22.00
2007,05,29,15,03,22.20
2007,05,29,15,04,22.30
2007,05,29,15,05,22.30
2007,05,29,15,06,22.30
2007,05,29,15,07,22.30
2007,05,29,15,08,22.30
2007,05,29,15,09,22.30
2007,05,29,15,10,22.30
2007,05,29,15,11,22.40
2007,05,29,15,12,22.40
2007,05,29,15,13,22.40
2007,05,29,15,14,22.40
2007,05,29,15,15,22.30
2007,05,29,15,16,22.30
2007,05,29,15,17,22.20
2007,05,29,15,18,22.20
2007,05,29,15,19,22.20
2007,05,29,15,20,22.20
2007,05,29,15,21,22.10
2007,05,29,15,22,22.10
2007,05,29,15,23,22.10
2007,05,29,15,24,22.10
2007,05,29,15,25,22.20
2007,05,29,15,26,22.20
2007,05,29,15,27,22.20
2007,05,29,15,28,22.30
2007,05,29,15,29,22.40
2007,05,29,15,30,22.40
2007,05,29,15,31,22.40
2007,05,29,15,32,22.40
2007,05,29,15,33,22.40
2007,05,29,15,34,22.30
2007,05,29,15,35,22.20
2007,05,29,15,36,22.20
2007,05,29,15,37,22.20
2007,05,29,15,38,22.20
2007,05,29,15,39,22.00
2007,05,29,15,40,22.00
2007,05,29,15,41,21.90
2007,05,29,15,42,22.00
2007,05,29,15,43,22.10
2007,05,29,15,44,22.20
2007,05,29,15,45,22.10
2007,05,29,15,46,22.10
2007,05,29,15,47,22.20
2007,05,29,15,48,22.20
2007,05,29,15,49,22.30
2007,05,29,15,50,22.30
2007,05,29,15,51,22.40
2007,05,29,15,52,22.50
2007,05,29,15,53,22.40
2007,05,29,15,54,22.40
2007,05,29,15,55,22.50
2007,05,29,15,56,22.60
2007,05,29,15,57,22.60
2007,05,29,15,58,22.60
2007,05,29,15,59,22.70
2007,05,29,16,00,22.80
2007,05,29,16,01,22.80
2007,05,29,16,02,22.90
2007,05,29,16,03,22.90
2007,05,29,16,04,22.90
2007,05,29,16,05,22.90
2007,05,29,16,06,23.00
2007,05,29,16,07,23.10
2007,05,29,16,08,23.30
2007,05,29,16,09,23.30
2007,05,29,16,10,23.30
2007,05,29,16,11,23.20
2007,05,29,16,12,23.20
2007,05,29,16,13,23.20
2007,05,29,16,14,23.20
2007,05,29,16,15,23.20
2007,05,29,16,16,23.20
2007,05,29,16,17,23.20
2007,05,29,16,18,23.20
2007,05,29,16,19,23.30
2007,05,29,16,20,23.30
2007,05,29,16,21,23.30
2007,05,29,16,22,23.30
2007,05,29,16,23,23.30
2007,05,29,16,24,23.20
2007,05,29,16,25,23.10
2007,05,29,16,26,23.10
2007,05,29,16,27,23.20
2007,05,29,16,28,23.20
2007,05,29,16,29,23.20
2007,05,29,16,30,23.20
2007,05,29,16,31,23.30
2007,05,29,16,32,23.30
2007,05,29,16,33,23.30
2007,05,29,16,34,23.30
2007,05,29,16,35,23.20
2007,05,29,16,36,23.20
2007,05,29,16,37,23.20
2007,05,29,16,38,23.30
2007,05,29,16,39,23.30
2007,05,29,16,40,23.30
2007,05,29,16,41,23.30
2007,05,29,16,42,23.30
2007,05,29,16,43,23.30
2007,05,29,16,44,23.30
2007,05,29,16,45,23.30
2007,05,29,16,46,23.30
2007,05,29,16,47,23.40
2007,05,29,16,48,23.60
2007,05,29,16,49,23.60
2007,05,29,16,50,23.70
2007,05,29,16,51,23.70
2007,05,29,16,52,23.60
2007,05,29,16,53,23.50
2007,05,29,16,54,23.40
2007,05,29,16,55,23.30
2007,05,29,16,56,23.30
2007,05,29,16,57,23.20
2007,05,29,16,58,23.10
2007,05,29,16,59,23.00
2007,05,29,17,00,22.90
2007,05,29,17,01,22.90
2007,05,29,17,02,22.90
2007,05,29,17,03,22.90
2007,05,29,17,04,23.00
2007,05,29,17,05,23.10
2007,05,29,17,06,23.10
2007,05,29,17,07,23.20
2007,05,29,17,08,23.20
2007,05,29,17,09,23.20
2007,05,29,17,10,23.10
2007,05,29,17,11,23.00
2007,05,29,17,12,22.90
2007,05,29,17,13,22.90
2007,05,29,17,14,22.80
2007,05,29,17,15,22.80
2007,05,29,17,16,22.80
2007,05,29,17,17,22.80
2007,05,29,17,18,22.80
2007,05,29,17,19,22.80
2007,05,29,17,20,22.80
2007,05,29,17,21,22.70
2007,05,29,17,22,22.70
2007,05,29,17,23,22.60
2007,05,29,17,24,22.60
2007,05,29,17,25,22.60
2007,05,29,17,26,22.70
2007,05,29,17,27,22.70
2007,05,29,17,28,22.80
2007,05,29,17,29,22.90
2007,05,29,17,30,22.80
2007,05,29,17,31,22.80
2007,05,29,17,32,22.70
2007,05,29,17,33,22.70
2007,05,29,17,34,22.70
2007,05,29,17,35,22.80
2007,05,29,17,36,22.80